Location: Klamath Falls
(42.2250°N, 121.7810°W)
Time: 16:02:32
(UTC-07:00)

ISS - Visible Passes

Search period start: 17 July 2018 00:00
Search period end: 27 July 2018 00:00
Orbit: 402 x 408 km, 51.6° (Epoch: 18 July)

Date Brightness Start Highest point End Pass type
(mag) Time Alt. Az. Time Alt. Az. Time Alt. Az.
17 Jul -1.1 00:24:13 15° NE 00:24:13 15° NE 00:24:55 10° NE visible
17 Jul -0.9 01:56:50 11° NW 01:58:52 17° N 02:01:09 10° NE visible
17 Jul -0.9 03:33:51 10° NW 03:36:16 19° NNE 03:38:42 10° ENE visible
17 Jul -3.1 05:10:01 10° NW 05:13:16 60° NNE 05:16:32 10° ESE visible
18 Jul -1.1 01:05:37 18° NW 01:06:32 20° NNW 01:09:04 10° NE visible
18 Jul -0.7 02:41:43 10° NW 02:43:55 16° N 02:46:07 10° NE visible
18 Jul -2.1 04:18:00 10° NW 04:21:06 36° NNE 04:24:11 10° E visible
18 Jul -3.9 22:34:20 10° SW 22:37:32 58° SE 22:40:46 10° ENE visible
19 Jul -1.6 00:11:25 10° W 00:14:13 26° NNW 00:17:03 10° NE visible
19 Jul -0.7 01:49:26 10° NW 01:51:32 16° N 01:53:38 10° NE visible
19 Jul -1.4 03:26:02 10° NW 03:28:51 26° NNE 03:31:40 10° E visible
19 Jul -3.8 05:02:17 10° WNW 05:05:32 59° SW 05:08:46 10° SE visible
19 Jul -3.1 21:42:37 10° SSW 21:45:32 30° SE 21:48:27 10° ENE visible
19 Jul -2.3 23:18:54 10° W 23:21:57 37° NNW 23:25:03 10° NE visible
20 Jul -0.7 00:56:57 10° NW 00:59:08 16° N 01:01:20 10° NE visible
20 Jul -1.0 02:33:59 10° NW 02:36:31 20° NNE 02:39:03 10° ENE visible
20 Jul -3.6 04:10:09 10° NW 04:13:26 74° NNE 04:16:43 10° ESE visible
20 Jul -3.3 22:26:31 10° WSW 22:29:45 60° NNW 22:33:00 10° NE visible
21 Jul -0.9 00:04:20 10° WNW 00:06:45 19° NNW 00:09:10 10° NE visible
21 Jul -0.8 01:41:53 10° NW 01:44:09 17° N 01:46:24 10° NE visible
21 Jul -2.6 03:18:05 10° NW 03:21:15 43° NNE 03:24:25 10° ESE visible
21 Jul -2.7 04:54:51 10° WNW 04:57:36 24° SW 05:00:20 10° SSE visible
21 Jul -3.9 21:34:22 10° SW 21:37:37 74° SE 21:40:53 10° ENE visible
21 Jul -1.3 23:11:41 10° WNW 23:14:23 23° NNW 23:17:06 10° NE visible
22 Jul -0.7 00:49:37 10° NW 00:51:43 16° N 00:53:50 10° NE visible
22 Jul -1.8 02:26:03 10° NW 02:28:59 29° NNE 02:31:54 10° E visible
22 Jul -3.6 04:02:25 10° WNW 04:05:35 46° SW 04:08:44 10° SE visible
22 Jul -1.9 22:19:05 10° W 22:22:04 32° NNW 22:25:03 10° NE visible
22 Jul -0.7 23:57:09 10° NW 23:59:17 16° N 00:01:25 10° NE visible
23 Jul -1.1 01:34:01 10° NW 01:35:53 20° N 01:35:53 20° N visible
23 Jul -2.8 21:26:36 10° WSW 21:29:47 49° NNW 21:33:00 10° NE visible
23 Jul -0.8 23:04:32 10° NW 23:06:51 18° N 23:09:10 10° NE visible
24 Jul -1.0 00:41:54 10° NW 00:44:15 18° N 00:44:34 18° NNE visible
24 Jul -1.1 22:11:50 10° WNW 22:14:26 21° NNW 22:17:02 10° NE visible
24 Jul -0.8 23:49:39 10° NW 23:51:48 16° N 23:53:39 11° NE visible
25 Jul -0.6 01:25:59 10° NW 01:26:16 12° NW 01:26:16 12° NW visible
25 Jul -1.6 21:19:10 10° W 21:22:03 28° NNW 21:24:57 10° NE visible
25 Jul -0.8 22:57:13 10° NW 22:59:20 16° N 23:01:26 10° NE visible
26 Jul -1.1 00:33:55 10° NW 00:35:31 20° NNW 00:35:31 20° NNW visible
26 Jul -0.9 22:04:37 10° NW 22:06:51 17° N 22:09:04 10° NE visible
26 Jul -1.3 23:41:48 10° NW 23:44:14 19° NNE 23:44:49 18° NNE visible
